Total_Precipitation_Accumulation
2.71 2.87 2.64 2.37 2.34 2.31 2.69 3.17 3.52 3.27 2.84 2.54 2.32 2.25 2.36 2.53 2.80 2.56 2.60 2.59 2.30 2.03 1.80 1.74 1.70 1.66 1.66 1.74 1.88 1.94 1.97 2.07 2.25 2.53 2.83 3.11 3.34 3.62
2.84 2.93 2.78 2.50 2.57 2.42 2.52 2.89 3.20 3.40 3.06 2.32 2.28 2.16 2.32 2.23 2.66 2.48 2.64 2.62 2.24 2.01 1.80 1.69 1.61 1.55 1.54 1.56 1.61 1.69 1.76 1.77 1.81 1.95 2.09 2.23 2.35 2.51
2.79 2.77 2.74 2.80 2.83 2.65 2.74 2.85 2.94 3.31 3.31 2.63 2.46 2.52 2.63 2.62 2.68 2.57 2.44 2.42 2.21 2.12 1.83 1.66 1.56 1.50 1.48 1.45 1.45 1.44 1.49 1.55 1.56 1.59 1.67 1.75 1.80 1.84
3.11 3.26 3.03 3.06 3.09 2.93 2.91 2.89 2.96 3.23 3.28 3.03 2.80 2.75 2.81 2.75 2.75 2.58 2.18 2.07 2.15 2.31 2.06 1.79 1.62 1.51 1.46 1.40 1.36 1.32 1.33 1.39 1.43 1.41 1.43 1.49 1.59 1.61
2.90 3.19 3.22 3.43 3.16 3.16 3.07 2.95 2.98 2.99 3.19 3.01 2.78 2.93 2.92 2.88 2.83 2.43 2.25 2.32 2.11 2.37 2.30 1.92 1.70 1.59 1.46 1.35 1.26 1.22 1.20 1.24 1.31 1.38 1.37 1.35 1.37 1.40
2.63 2.78 2.92 3.22 3.22 3.31 3.13 3.14 3.25 3.31 3.42 3.26 3.04 3.09 3.20 3.23 3.13 2.74 2.59 2.48 2.31 2.10 2.23 2.01 1.85 1.74 1.60 1.47 1.37 1.27 1.25 1.25 1.27 1.28 1.32 1.35 1.35 1.32
2.60 2.58 2.58 2.84 2.94 3.02 2.74 2.95 3.28 3.35 3.40 3.32 3.17 3.15 3.15 3.33 3.07 2.90 2.75 2.73 2.61 2.31 2.21 1.93 1.84 1.68 1.63 1.65 1.58 1.47 1.39 1.34 1.34 1.33 1.30 1.30 1.34 1.41
2.87 2.80 2.66 2.60 2.61 2.66 2.67 2.77 2.95 2.97 3.05 3.18 3.08 3.04 3.07 3.21 3.39 3.26 3.09 2.94 2.67 2.35 2.40 2.09 1.93 1.85 1.68 1.55 1.69 1.65 1.50 1.41 1.37 1.36 1.38 1.40 1.43 1.44
2.84 2.81 2.48 2.32 2.58 2.48 2.65 2.68 2.50 2.44 2.48 2.64 2.65 2.65 3.10 3.44 3.78 3.43 3.25 3.08 2.80 2.63 2.64 2.25 2.05 1.98 1.77 1.71 1.86 1.65 1.47 1.37 1.34 1.35 1.41 1.46 1.47 1.46
2.50 2.61 2.54 2.41 2.46 2.61 2.53 2.26 2.04 2.02 2.10 2.01 2.02 2.27 2.74 3.36 3.71 3.69 3.71 3.46 3.08 2.69 2.55 2.27 2.04 1.92 1.75 1.76 1.97 1.86 1.67 1.48 1.38 1.35 1.33 1.37 1.41 1.44
2.25 2.27 2.28 2.14 2.31 2.47 2.35 2.09 1.90 1.80 1.87 1.88 1.86 2.08 2.37 2.74 3.19 3.44 3.38 3.24 2.82 2.41 2.32 2.21 2.04 2.05 1.98 1.87 1.85 2.00 1.82 1.64 1.54 1.45 1.40 1.38 1.39 1.43
2.34 2.32 2.38 2.15 2.09 2.05 1.94 1.95 1.75 1.65 1.79 1.78 1.74 1.77 1.90 2.22 2.73 2.83 2.91 3.05 2.76 2.42 2.14 2.18 2.07 2.25 2.17 1.89 1.79 1.79 1.74 1.74 1.71 1.61 1.51 1.49 1.51 1.34
2.09 1.98 2.03 2.03 1.82 1.68 1.66 1.63 1.58 1.69 1.78 1.73 1.65 1.65 1.78 1.97 2.15 2.42 2.69 2.77 2.63 2.27 2.09 2.26 2.13 2.18 2.20 1.92 1.74 1.70 1.65 1.60 1.61 1.66 1.69 1.71 1.68 1.51
2.09 2.06 2.09 2.12 1.87 1.73 1.56 1.42 1.51 1.55 1.58 1.69 1.60 1.50 1.54 1.66 1.93 2.24 2.56 2.69 2.62 2.48 2.47 2.52 2.38 2.28 2.27 2.07 1.82 1.67 1.64 1.62 1.62 1.64 1.69 1.95 1.90 1.85
2.02 2.35 2.40 2.32 2.09 1.80 1.69 1.72 1.67 1.55 1.57 1.58 1.48 1.40 1.47 1.64 1.94 2.30 2.58 2.79 2.75 2.58 2.51 2.47 2.47 2.54 2.58 2.28 1.99 1.88 1.86 1.78 1.68 1.66 1.69 1.76 1.81 1.88
2.00 2.29 2.47 2.45 2.31 2.06 1.94 1.86 1.66 1.60 1.68 1.66 1.67 1.71 1.83 1.97 2.12 2.27 2.52 2.69 2.76 2.60 2.52 2.50 2.52 2.66 2.58 2.40 2.28 2.11 1.97 1.89 1.85 1.87 1.90 1.88 1.88 1.86
2.20 2.37 2.51 2.61 2.63 2.54 2.43 2.35 2.22 2.07 1.90 1.86 1.94 1.95 2.00 2.09 2.15 2.31 2.58 2.68 2.61 2.37 2.39 2.51 2.62 2.70 2.69 2.66 2.44 2.10 1.99 1.89 1.85 1.97 2.03 1.96 1.86 1.80
2.16 2.22 2.46 2.67 2.75 2.83 2.86 2.75 2.53 2.34 2.16 2.15 2.12 2.13 2.17 2.17 2.22 2.38 2.60 2.68 2.54 2.36 2.32 2.42 2.66 2.84 2.83 2.67 2.38 2.15 2.03 1.91 1.82 1.88 1.92 1.88 1.72 1.56
1.96 2.06 2.19 2.31 2.53 2.75 2.82 2.78 2.56 2.45 2.49 2.48 2.41 2.40 2.45 2.43 2.40 2.49 2.67 2.79 2.73 2.58 2.51 2.57 2.70 2.77 2.64 2.26 1.98 1.91 1.91 1.84 1.87 1.85 1.80 1.75 1.65 1.56
1.65 1.83 2.03 2.20 2.37 2.63 2.80 2.83 2.76 2.70 2.70 2.77 2.77 2.71 2.70 2.60 2.47 2.39 2.54 2.66 2.71 2.70 2.64 2.56 2.50 2.54 2.52 2.33 2.13 1.92 1.83 1.90 1.89 1.87 1.81 1.77 1.74 1.80
1.54 1.58 1.68 1.90 2.13 2.39 2.66 2.85 2.85 2.74 2.69 2.76 2.77 2.74 2.74 2.72 2.56 2.40 2.44 2.66 2.70 2.62 2.47 2.28 2.22 2.50 2.70 2.84 2.57 2.09 1.87 1.90 1.97 1.97 1.96 2.06 1.98 1.87
1.61 1.61 1.71 1.89 2.10 2.34 2.56 2.68 2.73 2.73 2.68 2.65 2.58 2.53 2.55 2.56 2.43 2.36 2.34 2.42 2.46 2.46 2.42 2.43 2.64 2.83 2.88 2.84 2.46 2.11 2.00 2.02 2.13 2.22 2.11 1.99 1.91 1.79
1.73 1.72 1.75 1.85 2.02 2.24 2.41 2.56 2.62 2.66 2.67 2.67 2.63 2.53 2.50 2.51 2.45 2.41 2.40 2.42 2.44 2.44 2.58 2.68 2.72 2.82 2.76 2.70 2.61 2.45 2.29 2.23 2.26 2.18 1.93 1.80 1.72 1.64